weather.gov     
National Weather Service

Terminal Aerodrome Forecast
NWS Homepage
This page is being discontinued on March 12, 2014.
The same data is available at this site. Please update your bookmarks.
Thank you, and we apologize for the inconvenience.
Please send an email to SR-SRH.Webmaster@noaa.gov with any concerns.


Current Version
Previous Version:    01  02  03  04  05  06  07  08  09  10  11  12  13  14  15  16  17  18  19  
[Printable]
145
FTUS44 KBRO 302300
TAFHRL
TAF
KHRL 302320Z 3100/3124 09006KT P6SM SCT035 SCT045
     FM310900 00000KT 4SM BR BKN030
      TEMPO 3112/3115 2SM -DZ BKN015 OVC030
     FM311500 02006KT P6SM BKN015
     FM311800 03010KT P6SM -DZ BKN025=


U.S. Dept. of Commerce
NOAA National Weather Service
1325 East West Highway
Silver Spring, MD 20910
E-mail: w-nws.webmaster@noaa.gov
Page last modified: May 16, 2007
NATIONAL WEATHER SERVICE: for Safety, for Work, for Fun - FOR LIFE